COSMOS 2361 1 25590U 98076A 12136.24303657 .00000085 00000-0 76315-4 0 9689 2 25590 82.9338 49.6868 0032571 13.0424 347.1565 13.72775051670876 COSMOS 2378 1 26818U 01023A 12136.88387821 .00000082 00000-0 71228-4 0 185 2 26818 82.9269 74.0908 0032718 333.7439 26.2058 13.73783789548370 COSMOS 2389 1 27436U 02026A 12136.74371358 .00000070 00000-0 56928-4 0 7026 2 27436 82.9512 15.9963 0045167 213.8622 145.9646 13.74783051500101 COSMOS 2398 1 27818U 03023A 12136.52614059 .00000043 00000-0 30832-4 0 5992 2 27818 82.9461 325.8303 0030519 200.4077 159.5864 13.72008845448057 COSMOS 2407 1 28380U 04028A 12136.42785256 .00000041 00000-0 26521-4 0 4403 2 28380 82.9574 284.0464 0037798 238.7328 121.0128 13.75898742392398 COSMOS 2414 1 28521U 05002A 12137.08230894 .00000052 00000-0 30874-4 0 9266 2 28521 82.9471 333.2061 0038866 233.4144 126.3437 13.87413731370612 COSMOS 2429 1 32052U 07038A 12136.26362538 .00000054 00000-0 40164-4 0 1864 2 32052 82.9814 37.0513 0037735 199.3131 160.6597 13.74746955234629 COSMOS 2454 1 35635U 09039A 12137.03051318 .00000048 00000-0 26288-4 0 5480 2 35635 82.9534 326.4629 0018155 212.4060 147.5987 13.89442999143009 COSMOS 2463 1 36519U 10017A 12136.90713208 .00000077 00000-0 68495-4 0 9424 2 36519 82.9589 68.7882 0036698 5.4614 354.6929 13.71288001102774